Regional Weather Roundup
Issued by NWS

Home | Current Version | Previous Version | Text Only | Print | Product List | Glossary Off
Versions: 1 2 3 4 5 6 7 8 9 10 11 12 13 14 15 16 17 18 19 20 21 22 23 24 25 26 27 28 29 30 31 32 33 34 35 36 37 38 39 40 41 42 43 44 45 46 47 48 49 50

000
ASUS43 KLSX 300159
RWRMO

WEATHER SUMMARY FOR MISSOURI
NATIONAL WEATHER SERVICE SPRINGFIELD MO
800 PM CST THU JAN 29 2015

NOTE: "FAIR" INDICATES FEW OR NO CLOUDS BELOW 12,000 FEET WITH NO
       SIGNIFICANT WEATHER AND/OR OBSTRUCTIONS TO VISIBILITY.
       CURRENT SKY AND/OR WEATHER CONDITIONS ARE NOT AVAILABLE FOR
       CHILLICOTHE AND FARMINGTON.

MOZ001>031-035>038-043-044-053-054-300300-
...NORTHERN AND WESTERN MISSOURI...

CITY           SKY/WX    TMP DP  RH WIND       PRES   REMARKS
KANSAS CTY INT FAIR      32  24  72 N9        30.49R WCI  24
KANSAS C DTWN  CLEAR     36  25  64 NW3       30.50R
LEE`S SUMMIT   CLEAR     32  23  69 N6        30.49R WCI  26
ST JOSEPH      CLEAR     27  20  75 NW7       30.51R WCI  19
CHILLICOTHE      N/A     35  23  61 N8        30.48R WCI  29
KIRKSVILLE     MOCLDY    32  23  69 NW12G20   30.43R WCI  23

$$
MOZ066>068-077>081-088>096-101>105-300300-
...SOUTHWEST MISSOURI...

CITY           SKY/WX    TMP DP  RH WIND       PRES   REMARKS
SPRINGFIELD    CLEAR     32  26  78 NW10      30.43R WCI  24
JOPLIN         FAIR      35  27  72 N6        30.48R

$$
MOZ032>034-039>042-045>050-055>058-069>072-300300-
...CENTRAL MISSOURI...

CITY           SKY/WX    TMP DP  RH WIND       PRES   REMARKS
COLUMBIA       CLOUDY    37  26  64 NW12      30.43R WCI  29
JEFFERSON CITY CLOUDY    39  26  59 NW12G18   30.45R
ROLLA          CLOUDY    37  27  67 NW12      30.39R WCI  29
SEDALIA        CLOUDY    38  26  62 NW13      30.47R WCI  30
OSAGE BEACH    CLOUDY    37  25  60 N12       30.45R WCI  30

$$
MOZ051-052-059>065-300300-
...EAST CENTRAL MISSOURI...

CITY           SKY/WX    TMP DP  RH WIND       PRES   REMARKS
ST LOUIS INTL  CLOUDY    38  27  64 NW15G22   30.39R WCI  29
SPIRIT OF STL  CLOUDY    38  27  64 NW15G23   30.40R WCI  29
ST CHARLES     CLOUDY    36  27  69 NW13G25   30.39R WCI  27

$$
MOZ072>076-082>087-097>100-106>115-300300-
...SOUTH CENTRAL AND SOUTHEAST MISSOURI...

CITY           SKY/WX    TMP DP  RH WIND       PRES   REMARKS
CAPE GIRARDEAU CLOUDY    41  31  67 NW6       30.35R
FARMINGTON     CLOUDY    39  27  60 NW15G22   30.39R
POPLAR BLUFF   CLOUDY    42  28  57 NW6       30.37R
WEST PLAINS    MOCLDY    38  27  64 NW8       30.39S

$$


USA.gov is the U.S. government's official web portal to all federal, state and local government web resources and services.